This demonstration page uses our WeatherBlox Daily Observations layout. Learn more.

39.92423, -83.80882

Hourly Observations for September 15, 2017

Temp ( °F °C ) Dew Point ( °F °C ) Humidity (%) Winds ( mph kmh ) Pressure ( in mb ) Visibility ( mi km ) Precip ( " mm )
12:56 am 00:56 Cloudy 61 16.1 60 15.6 97 97 Calm 30 1016 10 16.09344 0 0
1:56 am 01:56 Cloudy 61 16.1 60 15.6 97 97 Calm 30 1016 10 16.09344 0 0
2:56 am 02:56 Cloudy 61 16.1 60 15.6 97 97 Calm 30 1016 10 16.09344 0 0
3:56 am 03:56 Cloudy 61 16.1 60 15.6 97 97 Calm 30.03 1017 10 16.09344 0 0
4:56 am 04:56 Cloudy 61 16.1 60 15.6 97 97 Calm 30.03 1017 10 16.09344 0 0
5:56 am 05:56 Cloudy 61 16.1 60 15.6 97 97 Calm 30.03 1017 10 16.09344 0 0
6:56 am 06:56 Cloudy 59 15 59 15 100 100 Calm 30.06 1018 8 12.874752 0 0
7:21 am 07:21 Cloudy with Mist and Fog 59 15 57 14 94 94 Calm 30.09 1019 1.75 2.816352 0 0
7:25 am 07:25 Cloudy with Mist and Fog 59 15 57 14 94 94 E 3 6 30.09 1019 0.75 1.207008 0 0
7:29 am 07:29 Mostly Cloudy with Fog 57 14 57 14 100 100 Calm 30.09 1019 0.25 0.402336 0 0
7:40 am 07:40 Mostly Cloudy with Fog 57 14 57 14 100 100 Calm 30.12 1020 0.25 0.402336 0 0
7:56 am 07:56 Mostly Cloudy with Fog 58 14.4 57 13.9 97 97 Calm 30.09 1019 0.25 0.402336 0 0
8:02 am 08:02 Mostly Cloudy with Fog 57 14 57 14 100 100 Calm 30.12 1020 0.5 0.804672 0 0
8:06 am 08:06 Partly Cloudy with Mist and Fog 59 15 57 14 94 94 Calm 30.12 1020 1.25 2.01168 0 0
8:09 am 08:09 Partly Cloudy with Mist and Fog 59 15 59 15 100 100 Calm 30.12 1020 3 4.828032 0 0
8:56 am 08:56 Sunny 64 17.8 62 16.7 93 93 WSW 3 6 30.09 1019 10 16.09344 0 0
9:39 am 09:39 Mostly Sunny 66 19 63 17 88 88 Calm 30.09 1019 10 16.09344 0 0
9:56 am 09:56 Mostly Sunny 68 20 63 17.2 84 84 W 3 6 30.12 1020 10 16.09344 0 0
10:27 am 10:27 Mostly Cloudy 70 21 63 17 78 78 Calm 30.12 1020 10 16.09344 0 0
10:39 am 10:39 Partly Cloudy 68 20 63 17 83 83 Calm 30.12 1020 10 16.09344 0 0
10:56 am 10:56 Mostly Sunny 68 20 62 16.7 81 81 Calm 30.12 1020 10 16.09344 0 0
11:56 am 11:56 Partly Cloudy 71 21.7 61 16.1 71 71 N 3 6 30.12 1020 10 16.09344 0 0
12:56 pm 12:56 Mostly Cloudy 73 22.8 62 16.7 69 69 S 3 6 30.09 1019 10 16.09344 0 0
1:56 pm 13:56 Mostly Cloudy 73 22.8 62 16.7 69 69 Calm 30.09 1019 10 16.09344 0 0
2:56 pm 14:56 Cloudy 76 24.4 60 15.6 58 58 S 6 9 30.06 1018 10 16.09344 0 0
3:56 pm 15:56 Cloudy 74 23.3 61 16.1 64 64 E 5 7 30.06 1018 10 16.09344 0 0
4:56 pm 16:56 Cloudy 74 23.3 61 16.1 64 64 SE 7 11 30.06 1018 10 16.09344 0 0
5:56 pm 17:56 Cloudy 74 23.3 62 16.7 67 67 ESE 6 9 30.09 1019 10 16.09344 0 0
6:56 pm 18:56 Cloudy 72 22.2 63 17.2 73 73 SSE 3 6 30.09 1019 10 16.09344 0 0
7:56 pm 19:56 Cloudy 70 21.1 62 16.7 76 76 SSE 3 6 30.09 1019 10 16.09344 0 0
8:56 pm 20:56 Cloudy 67 19.4 63 17.2 87 87 SE 3 6 30.09 1019 10 16.09344 0 0
9:56 pm 21:56 Clear 65 18.3 61 16.1 87 87 SSE 6 9 30.12 1020 10 16.09344 0 0
10:56 pm 22:56 Clear 62 16.7 60 15.6 93 93 SE 3 6 30.12 1020 10 16.09344 0 0
11:56 pm 23:56 Clear 60 15.6 59 15 96 96 Calm 30.12 1020 7 11.265408 0 0

Powered by AerisWeather